| time (UTC) | temp F | wind direction | speed MPH | gust MPH | rain 1hr in | rain 24hr in | rain mn in | humidity % | barometer mb |
| 20260901163539 | 70 | 206 | 7.0 | 16.0 | 0.00 | 0.00 | 0.00 | 64 | 1021.0 |
| 20260901163105 | 69 | 219 | 8.0 | 16.0 | 0.00 | 0.00 | 0.00 | 64 | 1021.2 |
| 20260901162538 | 70 | 217 | 9.0 | 16.0 | 0.00 | 0.00 | 0.00 | 62 | 1021.1 |
| 20260901162036 | 70 | 229 | 7.0 | 16.0 | 0.00 | 0.00 | 0.00 | 64 | 1021.0 |
| 20260901161610 | 70 | 186 | 6.0 | 16.0 | 0.00 | 0.00 | 0.00 | 65 | 1021.0 |
| 20260901161038 | 70 | 277 | 7.0 | 16.0 | 0.00 | 0.00 | 0.00 | 63 | 1021.1 |
| 20260901160535 | 69 | 198 | 8.0 | 15.0 | 0.00 | 0.00 | 0.00 | 64 | 1021.0 |
| 20260901160111 | 69 | 223 | 7.0 | 15.0 | 0.00 | 0.00 | 0.00 | 65 | 1021.0 |
| 20260901155549 | 69 | 281 | 7.0 | 14.0 | 0.00 | 0.00 | 0.00 | 67 | 1021.1 |
| 20260901155038 | 68 | 235 | 7.0 | 13.0 | 0.00 | 0.00 | 0.00 | 67 | 1021.0 |
| 20260901154559 | 69 | 238 | 6.0 | 17.0 | 0.00 | 0.00 | 0.00 | 66 | 1021.0 |
| 20260901154040 | 69 | 218 | 8.0 | 17.0 | 0.00 | 0.00 | 0.00 | 65 | 1020.9 |
| 20260901153538 | 69 | 228 | 8.0 | 17.0 | 0.00 | 0.00 | 0.00 | 66 | 1021.0 |
| 20260901153055 | 69 | 250 | 7.0 | 13.0 | 0.00 | 0.00 | 0.00 | 66 | 1021.1 |
| 20260901152537 | 68 | 294 | 8.0 | 15.0 | 0.00 | 0.00 | 0.00 | 66 | 1021.2 |
| 20260901152037 | 69 | 228 | 7.0 | 15.0 | 0.00 | 0.00 | 0.00 | 65 | 1021.2 |
| 20260901151607 | 69 | 244 | 5.0 | 15.0 | 0.00 | 0.00 | 0.00 | 65 | 1021.2 |
| 20260901151037 | 69 | 244 | 7.0 | 16.0 | 0.00 | 0.00 | 0.00 | 64 | 1021.3 |
| 20260901150537 | 69 | 250 | 7.0 | 16.0 | 0.00 | 0.00 | 0.00 | 65 | 1021.2 |
| 20260901150107 | 69 | 229 | 4.0 | 14.0 | 0.00 | 0.00 | 0.00 | 66 | 1021.2 |
| 20260901145538 | 69 | 223 | 7.0 | 14.0 | 0.00 | 0.00 | 0.00 | 64 | 1021.2 |
| 20260901145038 | 69 | 249 | 6.0 | 15.0 | 0.00 | 0.00 | 0.00 | 65 | 1021.2 |
| 20260901144608 | 69 | 230 | 9.0 | 15.0 | 0.00 | 0.00 | 0.00 | 65 | 1021.2 |
| 20260901144037 | 69 | 213 | 9.0 | 15.0 | 0.00 | 0.00 | 0.00 | 63 | 1021.3 |
| 20260901143537 | 70 | 211 | 9.0 | 16.0 | 0.00 | 0.00 | 0.00 | 62 | 1021.1 |
| 20260901143108 | 71 | 214 | 9.0 | 16.0 | 0.00 | 0.00 | 0.00 | 62 | 1021.1 |
| 20260901142536 | 70 | 262 | 8.0 | 16.0 | 0.00 | 0.00 | 0.00 | 63 | 1021.2 |
| 20260901142037 | 71 | 233 | 7.0 | 15.0 | 0.00 | 0.00 | 0.00 | 62 | 1021.4 |
| 20260901141600 | 71 | 192 | 6.0 | 14.0 | 0.00 | 0.00 | 0.00 | 61 | 1021.3 |
| 20260901141038 | 71 | 209 | 6.0 | 16.0 | 0.00 | 0.00 | 0.00 | 62 | 1021.3 |
| 20260901140537 | 70 | 239 | 7.0 | 17.0 | 0.00 | 0.00 | 0.00 | 62 | 1021.3 |
| 20260901140111 | 71 | 148 | 7.0 | 17.0 | 0.00 | 0.00 | 0.00 | 60 | 1021.3 |
| 20260901135537 | 72 | 223 | 7.0 | 15.0 | 0.00 | 0.00 | 0.00 | 60 | 1021.3 |
| 20260901135037 | 71 | 200 | 7.0 | 13.0 | 0.00 | 0.00 | 0.00 | 61 | 1021.1 |
| 20260901134559 | 71 | 215 | 4.0 | 12.0 | 0.00 | 0.00 | 0.00 | 60 | 1021.1 |
| 20260901134036 | 71 | 222 | 6.0 | 14.0 | 0.00 | 0.00 | 0.00 | 61 | 1021.3 |
| 20260901133537 | 71 | 275 | 7.0 | 16.0 | 0.00 | 0.00 | 0.00 | 60 | 1021.3 |
| 20260901133057 | 70 | 222 | 6.0 | 17.0 | 0.00 | 0.00 | 0.00 | 60 | 1021.4 |
| 20260901132540 | 70 | 217 | 7.0 | 18.0 | 0.00 | 0.00 | 0.00 | 62 | 1021.5 |
| 20260901132038 | 70 | 238 | 9.0 | 18.0 | 0.00 | 0.00 | 0.00 | 62 | 1021.5 |
| 20260901131606 | 70 | 223 | 8.0 | 18.0 | 0.00 | 0.00 | 0.00 | 62 | 1021.5 |
| 20260901131040 | 70 | 212 | 8.0 | 16.0 | 0.00 | 0.00 | 0.00 | 62 | 1021.5 |
| 20260901130537 | 70 | 222 | 8.0 | 16.0 | 0.00 | 0.00 | 0.00 | 62 | 1021.5 |
| 20260901130104 | 71 | 192 | 9.0 | 16.0 | 0.00 | 0.00 | 0.00 | 62 | 1021.5 |
| 20260901125538 | 70 | 196 | 6.0 | 18.0 | 0.00 | 0.00 | 0.00 | 61 | 1021.4 |
| 20260901125037 | 70 | 207 | 8.0 | 18.0 | 0.00 | 0.00 | 0.00 | 61 | 1021.3 |
| 20260901124609 | 71 | 213 | 7.0 | 19.0 | 0.00 | 0.00 | 0.00 | 62 | 1021.3 |
| 20260901124037 | 71 | 242 | 7.0 | 19.0 | 0.00 | 0.00 | 0.00 | 62 | 1021.3 |
| 20260901123537 | 70 | 298 | 8.0 | 17.0 | 0.00 | 0.00 | 0.00 | 63 | 1021.4 |
| 20260901123057 | 70 | 207 | 8.0 | 16.0 | 0.00 | 0.00 | 0.00 | 62 | 1021.3 |
| 20260901122538 | 70 | 195 | 8.0 | 14.0 | 0.00 | 0.00 | 0.00 | 62 | 1021.4 |
| 20260901122037 | 70 | 188 | 7.0 | 17.0 | 0.00 | 0.00 | 0.00 | 61 | 1021.4 |
| 20260901121554 | 70 | 186 | 9.0 | 17.0 | 0.00 | 0.00 | 0.00 | 63 | 1021.4 |
| 20260901121037 | 69 | 229 | 7.0 | 13.0 | 0.00 | 0.00 | 0.00 | 62 | 1021.4 |
| 20260901120537 | 69 | 250 | 7.0 | 13.0 | 0.00 | 0.00 | 0.00 | 62 | 1021.4 |
| 20260901115538 | 69 | 273 | 3.0 | 10.0 | 0.00 | 0.00 | 0.00 | 62 | 1021.6 |
| 20260901115037 | 69 | 200 | 4.0 | 11.0 | 0.00 | 0.00 | 0.00 | 61 | 1021.6 |
| 20260901114640 | 69 | 240 | 3.0 | 11.0 | 0.00 | 0.00 | 0.00 | 61 | 1021.6 |
| 20260901114037 | 70 | 230 | 6.0 | 11.0 | 0.00 | 0.00 | 0.00 | 60 | 1021.6 |
| 20260901113542 | 70 | 224 | 5.0 | 11.0 | 0.00 | 0.00 | 0.00 | 59 | 1021.5 |
| 20260901113058 | 70 | 252 | 5.0 | 11.0 | 0.00 | 0.00 | 0.00 | 59 | 1021.5 |
| 20260901112537 | 70 | 215 | 5.0 | 10.0 | 0.00 | 0.00 | 0.00 | 59 | 1021.4 |
| 20260901112037 | 70 | 281 | 2.0 | 8.0 | 0.00 | 0.00 | 0.00 | 57 | 1021.4 |
| 20260901111558 | 70 | 251 | 4.0 | 9.0 | 0.00 | 0.00 | 0.00 | 57 | 1021.5 |
| 20260901111038 | 70 | 295 | 3.0 | 9.0 | 0.00 | 0.00 | 0.00 | 59 | 1021.4 |
| 20260901110537 | 70 | 285 | 3.0 | 10.0 | 0.00 | 0.00 | 0.00 | 58 | 1021.5 |
| 20260901110103 | 70 | 197 | 3.0 | 11.0 | 0.00 | 0.00 | 0.00 | 58 | 1021.5 |
| 20260901105537 | 69 | 236 | 5.0 | 11.0 | 0.00 | 0.00 | 0.00 | 57 | 1021.6 |
| 20260901105037 | 69 | 262 | 6.0 | 11.0 | 0.00 | 0.00 | 0.00 | 57 | 1021.6 |
| 20260901104559 | 69 | 232 | 7.0 | 12.0 | 0.00 | 0.00 | 0.00 | 58 | 1021.7 |
| 20260901104038 | 69 | 219 | 3.0 | 12.0 | 0.00 | 0.00 | 0.00 | 59 | 1021.8 |
| 20260901103537 | 69 | 231 | 4.0 | 9.0 | 0.00 | 0.00 | 0.00 | 62 | 1021.8 |
| 20260901103110 | 69 | 290 | 2.0 | 10.0 | 0.00 | 0.00 | 0.00 | 62 | 1021.8 |
| 20260901102538 | 68 | 207 | 3.0 | 10.0 | 0.00 | 0.00 | 0.00 | 62 | 1021.8 |
| 20260901102038 | 68 | 200 | 4.0 | 12.0 | 0.00 | 0.00 | 0.00 | 63 | 1021.8 |
| 20260901101605 | 68 | 237 | 5.0 | 12.0 | 0.00 | 0.00 | 0.00 | 62 | 1021.9 |
| 20260901101037 | 68 | 269 | 4.0 | 9.0 | 0.00 | 0.00 | 0.00 | 61 | 1022.0 |
| 20260901100537 | 68 | 171 | 4.0 | 8.0 | 0.00 | 0.00 | 0.00 | 61 | 1021.9 |
| 20260901100104 | 68 | 273 | 2.0 | 7.0 | 0.00 | 0.00 | 0.00 | 62 | 1022.0 |
| 20260901095537 | 68 | 215 | 1.0 | 5.0 | 0.00 | 0.00 | 0.00 | 63 | 1022.1 |
| 20260901095037 | 67 | 151 | 2.0 | 8.0 | 0.00 | 0.00 | 0.00 | 63 | 1022.2 |
| 20260901094555 | 67 | 172 | 2.0 | 10.0 | 0.00 | 0.00 | 0.00 | 64 | 1022.1 |
| 20260901094038 | 67 | 307 | 3.0 | 10.0 | 0.00 | 0.00 | 0.00 | 63 | 1022.2 |
| 20260901093537 | 66 | 246 | 4.0 | 10.0 | 0.00 | 0.00 | 0.00 | 66 | 1022.2 |
| 20260901093104 | 66 | 274 | 3.0 | 9.0 | 0.00 | 0.00 | 0.00 | 66 | 1022.2 |
| 20260901092538 | 66 | 253 | 4.0 | 9.0 | 0.00 | 0.00 | 0.00 | 68 | 1022.2 |
| 20260901092037 | 66 | 271 | 2.0 | 7.0 | 0.00 | 0.00 | 0.00 | 69 | 1022.3 |
| 20260901091612 | 65 | 239 | 3.0 | 8.0 | 0.00 | 0.00 | 0.00 | 70 | 1022.2 |
| 20260901091037 | 65 | 258 | 4.0 | 8.0 | 0.00 | 0.00 | 0.00 | 70 | 1022.3 |
| 20260901090537 | 65 | 271 | 2.0 | 10.0 | 0.00 | 0.00 | 0.00 | 72 | 1022.2 |
| 20260901090056 | 64 | 250 | 4.0 | 10.0 | 0.00 | 0.00 | 0.00 | 72 | 1022.2 |
| 20260901085537 | 64 | 309 | 3.0 | 10.0 | 0.00 | 0.00 | 0.00 | 74 | 1022.2 |
| 20260901085037 | 64 | 238 | 3.0 | 6.0 | 0.00 | 0.00 | 0.00 | 75 | 1022.2 |
| 20260901084604 | 63 | 254 | 1.0 | 8.0 | 0.00 | 0.00 | 0.00 | 76 | 1022.2 |
| 20260901084037 | 63 | 265 | 3.0 | 8.0 | 0.00 | 0.00 | 0.00 | 77 | 1022.2 |
| 20260901083537 | 63 | 302 | 2.0 | 7.0 | 0.00 | 0.00 | 0.00 | 78 | 1022.1 |
| 20260901083104 | 62 | 245 | 1.0 | 4.0 | 0.00 | 0.00 | 0.00 | 79 | 1022.0 |
| 20260901082538 | 61 | 245 | 1.0 | 3.0 | 0.00 | 0.00 | 0.00 | 79 | 1022.0 |
| 20260901082036 | 61 | 245 | 1.0 | 4.0 | 0.00 | 0.00 | 0.00 | 79 | 1022.0 |
| 20260901081600 | 61 | 245 | 1.0 | 4.0 | 0.00 | 0.00 | 0.00 | 80 | 1022.0 |
| 20260901081037 | 60 | 229 | 2.0 | 4.0 | 0.00 | 0.00 | 0.00 | 81 | 1022.0 |
| 20260901080537 | 60 | 218 | 1.0 | 4.0 | 0.00 | 0.00 | 0.00 | 81 | 1022.0 |
| 20260901075538 | 59 | 263 | 0.0 | 3.0 | 0.00 | 0.00 | 0.00 | 82 | 1021.9 |
| 20260901075038 | 59 | 263 | 0.0 | 3.0 | 0.00 | 0.00 | 0.00 | 83 | 1021.9 |
| 20260901074605 | 58 | 0 | 0.0 | 0.0 | 0.00 | 0.00 | 0.00 | 84 | 1021.9 |
| 20260901074037 | 58 | 0 | 0.0 | 0.0 | 0.00 | 0.00 | 0.00 | 84 | 1021.9 |
| 20260901073537 | 58 | 0 | 0.0 | 0.0 | 0.00 | 0.00 | 0.00 | 85 | 1021.8 |
| 20260901073104 | 57 | 0 | 0.0 | 0.0 | 0.00 | 0.00 | 0.00 | 85 | 1021.8 |
| 20260901072538 | 57 | 0 | 0.0 | 0.0 | 0.00 | 0.00 | 0.00 | 85 | 1021.7 |
| 20260901072038 | 57 | 0 | 0.0 | 0.0 | 0.00 | 0.00 | 0.00 | 85 | 1021.7 |
| 20260901071558 | 56 | 0 | 0.0 | 0.0 | 0.00 | 0.00 | 0.00 | 86 | 1021.8 |
| 20260901071037 | 56 | 0 | 0.0 | 0.0 | 0.00 | 0.00 | 0.00 | 86 | 1021.7 |
| 20260901070537 | 56 | 0 | 0.0 | 0.0 | 0.00 | 0.00 | 0.00 | 86 | 1021.6 |
| 20260901070115 | 56 | 0 | 0.0 | 0.0 | 0.00 | 0.00 | 0.00 | 86 | 1021.7 |
| 20260901065539 | 55 | 0 | 0.0 | 0.0 | 0.00 | 0.00 | 0.00 | 87 | 1021.6 |
| 20260901065037 | 55 | 0 | 0.0 | 0.0 | 0.00 | 0.00 | 0.00 | 87 | 1021.7 |
| 20260901064558 | 55 | 0 | 0.0 | 0.0 | 0.00 | 0.00 | 0.00 | 88 | 1021.6 |
| 20260901064037 | 54 | 0 | 0.0 | 0.0 | 0.00 | 0.00 | 0.00 | 88 | 1021.6 |
| 20260901063538 | 54 | 0 | 0.0 | 0.0 | 0.00 | 0.00 | 0.00 | 88 | 1021.6 |
| 20260901063056 | 54 | 0 | 0.0 | 0.0 | 0.00 | 0.00 | 0.00 | 89 | 1021.6 |
| 20260901062537 | 53 | 0 | 0.0 | 0.0 | 0.00 | 0.00 | 0.00 | 88 | 1021.5 |
| 20260901062037 | 53 | 0 | 0.0 | 0.0 | 0.00 | 0.00 | 0.00 | 88 | 1021.5 |
| 20260901061603 | 52 | 0 | 0.0 | 0.0 | 0.00 | 0.00 | 0.00 | 88 | 1021.6 |
| 20260901061039 | 52 | 0 | 0.0 | 0.0 | 0.00 | 0.00 | 0.00 | 88 | 1021.4 |
| 20260901060539 | 52 | 0 | 0.0 | 0.0 | 0.00 | 0.00 | 0.00 | 88 | 1021.3 |
| 20260901060105 | 52 | 0 | 0.0 | 0.0 | 0.00 | 0.00 | 0.00 | 88 | 1021.3 |
| 20260901055537 | 52 | 0 | 0.0 | 0.0 | 0.00 | 0.00 | 0.00 | 88 | 1021.3 |
| 20260901055038 | 52 | 0 | 0.0 | 0.0 | 0.00 | 0.00 | 0.00 | 88 | 1021.2 |
| 20260901054601 | 52 | 0 | 0.0 | 0.0 | 0.00 | 0.00 | 0.00 | 88 | 1021.2 |
| 20260901054038 | 52 | 0 | 0.0 | 0.0 | 0.00 | 0.00 | 0.00 | 87 | 1021.1 |
| 20260901053536 | 52 | 0 | 0.0 | 0.0 | 0.00 | 0.00 | 0.00 | 87 | 1021.1 |
| 20260901053056 | 52 | 0 | 0.0 | 0.0 | 0.00 | 0.00 | 0.00 | 87 | 1021.1 |
| 20260901052537 | 52 | 0 | 0.0 | 0.0 | 0.00 | 0.00 | 0.00 | 88 | 1021.1 |
| 20260901052037 | 52 | 0 | 0.0 | 0.0 | 0.00 | 0.00 | 0.00 | 87 | 1021.0 |
| 20260901051606 | 52 | 0 | 0.0 | 0.0 | 0.00 | 0.00 | 0.00 | 87 | 1020.9 |
| 20260901051037 | 52 | 0 | 0.0 | 0.0 | 0.00 | 0.00 | 0.00 | 87 | 1020.9 |
| 20260901050538 | 52 | 0 | 0.0 | 0.0 | 0.00 | 0.00 | 0.00 | 87 | 1020.9 |
| 20260901050059 | 52 | 0 | 0.0 | 0.0 | 0.00 | 0.00 | 0.00 | 87 | 1020.8 |
| 20260901045538 | 52 | 0 | 0.0 | 0.0 | 0.00 | 0.00 | 0.00 | 87 | 1020.9 |
| 20260901045037 | 52 | 0 | 0.0 | 0.0 | 0.00 | 0.00 | 0.00 | 87 | 1020.8 |
| 20260901044610 | 52 | 0 | 0.0 | 0.0 | 0.00 | 0.00 | 0.00 | 87 | 1020.8 |
| 20260901044037 | 52 | 0 | 0.0 | 0.0 | 0.00 | 0.00 | 0.00 | 87 | 1020.9 |
| 20260901043537 | 52 | 0 | 0.0 | 0.0 | 0.00 | 0.00 | 0.00 | 87 | 1020.8 |
| 20260901043059 | 52 | 0 | 0.0 | 0.0 | 0.00 | 0.00 | 0.00 | 87 | 1021.0 |
| 20260901042535 | 52 | 0 | 0.0 | 0.0 | 0.00 | 0.00 | 0.00 | 87 | 1021.0 |
| 20260901042033 | 52 | 0 | 0.0 | 0.0 | 0.00 | 0.00 | 0.00 | 87 | 1020.9 |
| 20260901041603 | 52 | 0 | 0.0 | 0.0 | 0.00 | 0.00 | 0.00 | 86 | 1020.9 |
| 20260901041035 | 52 | 0 | 0.0 | 0.0 | 0.00 | 0.00 | 0.00 | 86 | 1020.9 |
| 20260901040533 | 52 | 0 | 0.0 | 0.0 | 0.00 | 0.00 | 0.00 | 86 | 1020.8 |
| 20260901040103 | 52 | 0 | 0.0 | 0.0 | 0.00 | 0.00 | 0.00 | 86 | 1020.9 |
| 20260901035537 | 52 | 0 | 0.0 | 0.0 | 0.00 | 0.00 | 0.00 | 86 | 1020.9 |
| 20260901035032 | 52 | 0 | 0.0 | 0.0 | 0.00 | 0.00 | 0.00 | 87 | 1020.9 |
| 20260901034558 | 52 | 0 | 0.0 | 0.0 | 0.00 | 0.00 | 0.00 | 86 | 1020.9 |
| 20260901034036 | 52 | 0 | 0.0 | 0.0 | 0.00 | 0.00 | 0.00 | 86 | 1020.8 |
| 20260901033533 | 52 | 0 | 0.0 | 0.0 | 0.00 | 0.00 | 0.00 | 86 | 1020.9 |
| 20260901033117 | 52 | 0 | 0.0 | 0.0 | 0.00 | 0.00 | 0.00 | 85 | 1020.9 |
| 20260901032533 | 52 | 0 | 0.0 | 0.0 | 0.00 | 0.00 | 0.00 | 85 | 1020.9 |
| 20260901032034 | 52 | 0 | 0.0 | 0.0 | 0.00 | 0.00 | 0.00 | 85 | 1020.9 |
| 20260901031551 | 52 | 0 | 0.0 | 0.0 | 0.00 | 0.00 | 0.00 | 85 | 1020.9 |
| 20260901031032 | 52 | 0 | 0.0 | 0.0 | 0.00 | 0.00 | 0.00 | 85 | 1020.9 |
| 20260901030534 | 52 | 0 | 0.0 | 0.0 | 0.00 | 0.00 | 0.00 | 85 | 1020.9 |
| 20260901030104 | 52 | 0 | 0.0 | 0.0 | 0.00 | 0.00 | 0.00 | 85 | 1020.9 |
| 20260901025535 | 52 | 0 | 0.0 | 0.0 | 0.00 | 0.00 | 0.00 | 85 | 1020.9 |
| 20260901025033 | 52 | 0 | 0.0 | 0.0 | 0.00 | 0.00 | 0.00 | 85 | 1020.9 |
| 20260901024556 | 52 | 0 | 0.0 | 0.0 | 0.00 | 0.00 | 0.00 | 85 | 1020.8 |
| 20260901024035 | 52 | 0 | 0.0 | 0.0 | 0.00 | 0.00 | 0.00 | 85 | 1020.9 |
| 20260901023536 | 52 | 0 | 0.0 | 0.0 | 0.00 | 0.00 | 0.00 | 85 | 1020.9 |
| 20260901023057 | 52 | 0 | 0.0 | 0.0 | 0.00 | 0.00 | 0.00 | 84 | 1020.8 |
| 20260901022538 | 52 | 0 | 0.0 | 0.0 | 0.00 | 0.00 | 0.00 | 84 | 1020.9 |
| 20260901022035 | 53 | 0 | 0.0 | 0.0 | 0.00 | 0.00 | 0.00 | 84 | 1020.9 |
| 20260901021604 | 53 | 0 | 0.0 | 0.0 | 0.00 | 0.00 | 0.00 | 84 | 1020.9 |
| 20260901021035 | 53 | 0 | 0.0 | 2.0 | 0.00 | 0.00 | 0.00 | 84 | 1020.9 |
| 20260901020537 | 53 | 0 | 0.0 | 2.0 | 0.00 | 0.00 | 0.00 | 84 | 1020.9 |
| 20260901020058 | 53 | 0 | 0.0 | 0.0 | 0.00 | 0.00 | 0.00 | 83 | 1021.0 |
| 20260901015535 | 53 | 0 | 0.0 | 0.0 | 0.00 | 0.00 | 0.00 | 83 | 1020.9 |
| 20260901015035 | 53 | 0 | 0.0 | 0.0 | 0.00 | 0.00 | 0.00 | 82 | 1020.8 |
| 20260901014608 | 53 | 0 | 0.0 | 0.0 | 0.00 | 0.00 | 0.00 | 82 | 1020.8 |
| 20260901014035 | 53 | 0 | 0.0 | 0.0 | 0.00 | 0.00 | 0.00 | 82 | 1020.8 |
| 20260901013534 | 54 | 0 | 0.0 | 0.0 | 0.00 | 0.00 | 0.00 | 82 | 1020.7 |
| 20260901013116 | 54 | 0 | 0.0 | 0.0 | 0.00 | 0.00 | 0.00 | 81 | 1020.7 |
| 20260901012536 | 54 | 0 | 0.0 | 0.0 | 0.00 | 0.00 | 0.00 | 81 | 1020.6 |
| 20260901012037 | 54 | 0 | 0.0 | 0.0 | 0.00 | 0.00 | 0.00 | 81 | 1020.7 |
| 20260901011613 | 54 | 0 | 0.0 | 0.0 | 0.00 | 0.00 | 0.00 | 81 | 1020.7 |
| 20260901011037 | 55 | 0 | 0.0 | 0.0 | 0.00 | 0.00 | 0.00 | 81 | 1020.7 |
| 20260901010538 | 55 | 0 | 0.0 | 0.0 | 0.00 | 0.00 | 0.00 | 81 | 1020.6 |
| 20260901010114 | 55 | 0 | 0.0 | 0.0 | 0.00 | 0.00 | 0.00 | 81 | 1020.7 |
| 20260901005538 | 55 | 0 | 0.0 | 0.0 | 0.00 | 0.01 | 0.00 | 81 | 1020.6 |
| 20260901005041 | 55 | 0 | 0.0 | 0.0 | 0.00 | 0.01 | 0.00 | 80 | 1020.7 |
| 20260901004602 | 55 | 0 | 0.0 | 0.0 | 0.00 | 0.01 | 0.00 | 80 | 1020.6 |
| 20260901004038 | 55 | 0 | 0.0 | 0.0 | 0.00 | 0.01 | 0.00 | 80 | 1020.6 |
| 20260901003538 | 55 | 0 | 0.0 | 0.0 | 0.00 | 0.01 | 0.00 | 80 | 1020.6 |
| 20260901003056 | 55 | 0 | 0.0 | 0.0 | 0.00 | 0.01 | 0.00 | 80 | 1020.6 |
| 20260901002538 | 55 | 0 | 0.0 | 3.0 | 0.00 | 0.01 | 0.00 | 80 | 1020.5 |
| 20260901002038 | 56 | 0 | 0.0 | 3.0 | 0.00 | 0.01 | 0.00 | 80 | 1020.6 |
| 20260901001555 | 56 | 263 | 1.0 | 3.0 | 0.00 | 0.01 | 0.00 | 79 | 1020.6 |
| 20260901001038 | 56 | 263 | 1.0 | 4.0 | 0.00 | 0.01 | 0.00 | 79 | 1020.6 |
| 20260901000538 | 56 | 263 | 1.0 | 4.0 | 0.00 | 0.01 | 0.00 | 79 | 1020.7 |
| 20260831235538 | 56 | 252 | 1.0 | 4.0 | 0.00 | 0.10 | 0.00 | 79 | 1020.6 |
| 20260831235040 | 56 | 252 | 2.0 | 4.0 | 0.00 | 0.10 | 0.00 | 79 | 1020.5 |
| 20260831234601 | 56 | 252 | 1.0 | 4.0 | 0.00 | 0.10 | 0.00 | 78 | 1020.5 |
| 20260831234037 | 56 | 252 | 1.0 | 4.0 | 0.00 | 0.10 | 0.00 | 78 | 1020.4 |
| 20260831233538 | 56 | 252 | 1.0 | 3.0 | 0.00 | 0.10 | 0.00 | 78 | 1020.5 |
| 20260831233100 | 56 | 252 | 1.0 | 3.0 | 0.00 | 0.10 | 0.00 | 78 | 1020.5 |
| 20260831232537 | 57 | 252 | 1.0 | 3.0 | 0.00 | 0.10 | 0.00 | 78 | 1020.5 |
| 20260831232037 | 57 | 252 | 1.0 | 3.0 | 0.00 | 0.10 | 0.00 | 77 | 1020.4 |
| 20260831231603 | 57 | 252 | 1.0 | 3.0 | 0.00 | 0.10 | 0.00 | 77 | 1020.5 |
| 20260831231037 | 57 | 252 | 1.0 | 4.0 | 0.00 | 0.10 | 0.00 | 77 | 1020.4 |
| 20260831230537 | 57 | 252 | 1.0 | 4.0 | 0.00 | 0.10 | 0.00 | 77 | 1020.4 |
| 20260831230114 | 57 | 252 | 1.0 | 4.0 | 0.00 | 0.10 | 0.00 | 77 | 1020.5 |
| 20260831225536 | 57 | 252 | 1.0 | 4.0 | 0.00 | 0.10 | 0.10 | 77 | 1020.5 |
| 20260831225036 | 58 | 252 | 1.0 | 3.0 | 0.00 | 0.10 | 0.10 | 76 | 1020.5 |
| 20260831224559 | 58 | 252 | 0.0 | 3.0 | 0.00 | 0.10 | 0.10 | 76 | 1020.5 |
| 20260831224042 | 58 | 0 | 1.0 | 4.0 | 0.00 | 0.10 | 0.10 | 76 | 1020.4 |
| 20260831223538 | 58 | 252 | 1.0 | 4.0 | 0.00 | 0.10 | 0.10 | 76 | 1020.5 |
| 20260831223107 | 58 | 252 | 1.0 | 4.0 | 0.00 | 0.10 | 0.10 | 76 | 1020.5 |
| 20260831222537 | 58 | 252 | 0.0 | 3.0 | 0.00 | 0.10 | 0.10 | 75 | 1020.4 |
| 20260831222037 | 59 | 252 | 1.0 | 4.0 | 0.00 | 0.10 | 0.10 | 75 | 1020.4 |
| 20260831221607 | 59 | 252 | 1.0 | 4.0 | 0.00 | 0.10 | 0.10 | 75 | 1020.4 |
| 20260831221036 | 59 | 252 | 1.0 | 3.0 | 0.00 | 0.10 | 0.10 | 74 | 1020.3 |
| 20260831220537 | 59 | 252 | 1.0 | 3.0 | 0.00 | 0.10 | 0.10 | 74 | 1020.4 |
| 20260831220100 | 59 | 288 | 1.0 | 3.0 | 0.00 | 0.10 | 0.10 | 74 | 1020.4 |
| 20260831215538 | 60 | 277 | 0.0 | 3.0 | 0.00 | 0.10 | 0.10 | 74 | 1020.4 |
| 20260831215038 | 60 | 277 | 1.0 | 3.0 | 0.00 | 0.10 | 0.10 | 73 | 1020.5 |
| 20260831214611 | 60 | 273 | 1.0 | 4.0 | 0.00 | 0.10 | 0.10 | 73 | 1020.3 |
| 20260831214037 | 60 | 294 | 1.0 | 4.0 | 0.00 | 0.10 | 0.10 | 73 | 1020.3 |
| 20260831213537 | 60 | 281 | 0.0 | 3.0 | 0.00 | 0.10 | 0.10 | 73 | 1020.2 |
| 20260831213057 | 60 | 0 | 1.0 | 3.0 | 0.00 | 0.10 | 0.10 | 73 | 1020.1 |
| 20260831212537 | 60 | 279 | 0.0 | 3.0 | 0.00 | 0.10 | 0.10 | 72 | 1020.1 |
| 20260831212037 | 60 | 0 | 0.0 | 2.0 | 0.00 | 0.10 | 0.10 | 72 | 1020.0 |
| 20260831211558 | 60 | 279 | 0.0 | 2.0 | 0.00 | 0.10 | 0.10 | 72 | 1020.0 |
| 20260831211037 | 60 | 0 | 0.0 | 2.0 | 0.00 | 0.10 | 0.10 | 71 | 1020.0 |
| 20260831210539 | 60 | 0 | 0.0 | 1.0 | 0.00 | 0.10 | 0.10 | 71 | 1020.0 |
| 20260831205540 | 61 | 0 | 0.0 | 3.0 | 0.00 | 0.10 | 0.10 | 70 | 1019.9 |
| 20260831205037 | 61 | 279 | 1.0 | 3.0 | 0.00 | 0.10 | 0.10 | 70 | 1019.9 |
| 20260831204558 | 61 | 279 | 1.0 | 3.0 | 0.00 | 0.10 | 0.10 | 70 | 1019.9 |
| 20260831204037 | 61 | 279 | 1.0 | 3.0 | 0.00 | 0.10 | 0.10 | 70 | 1019.7 |
| 20260831203537 | 61 | 279 | 1.0 | 3.0 | 0.00 | 0.10 | 0.10 | 70 | 1019.6 |
| 20260831203106 | 62 | 279 | 0.0 | 3.0 | 0.00 | 0.10 | 0.10 | 69 | 1019.6 |
| 20260831202536 | 62 | 279 | 0.0 | 4.0 | 0.00 | 0.10 | 0.10 | 69 | 1019.6 |
| 20260831202041 | 62 | 313 | 0.0 | 4.0 | 0.00 | 0.10 | 0.10 | 68 | 1019.6 |
| 20260831201608 | 62 | 327 | 1.0 | 4.0 | 0.00 | 0.10 | 0.10 | 68 | 1019.6 |
| 20260831201038 | 62 | 300 | 1.0 | 4.0 | 0.00 | 0.10 | 0.10 | 68 | 1019.5 |
| 20260831200537 | 62 | 312 | 2.0 | 4.0 | 0.00 | 0.10 | 0.10 | 68 | 1019.4 |
| 20260831200109 | 63 | 0 | 1.0 | 3.0 | 0.00 | 0.10 | 0.10 | 68 | 1019.4 |
| 20260831195536 | 63 | 315 | 1.0 | 4.0 | 0.00 | 0.10 | 0.10 | 67 | 1019.4 |
| 20260831195037 | 63 | 309 | 1.0 | 4.0 | 0.00 | 0.10 | 0.10 | 67 | 1019.3 |
| 20260831194615 | 63 | 275 | 1.0 | 3.0 | 0.00 | 0.10 | 0.10 | 67 | 1019.2 |
| 20260831194038 | 63 | 270 | 1.0 | 4.0 | 0.00 | 0.10 | 0.10 | 66 | 1019.2 |
| 20260831193538 | 64 | 306 | 1.0 | 4.0 | 0.00 | 0.10 | 0.10 | 66 | 1019.2 |
| 20260831193059 | 64 | 314 | 2.0 | 8.0 | 0.00 | 0.10 | 0.10 | 65 | 1019.1 |
| 20260831192537 | 64 | 303 | 3.0 | 9.0 | 0.00 | 0.10 | 0.10 | 65 | 1019.0 |
| 20260831192038 | 64 | 295 | 3.0 | 10.0 | 0.00 | 0.10 | 0.10 | 65 | 1018.9 |
| 20260831191551 | 64 | 292 | 5.0 | 12.0 | 0.00 | 0.10 | 0.10 | 64 | 1018.8 |
| 20260831191037 | 65 | 302 | 4.0 | 12.0 | 0.00 | 0.10 | 0.10 | 65 | 1018.8 |
| 20260831190537 | 65 | 289 | 3.0 | 7.0 | 0.00 | 0.10 | 0.10 | 65 | 1018.6 |
| 20260831190115 | 65 | 295 | 2.0 | 8.0 | 0.00 | 0.10 | 0.10 | 65 | 1018.5 |
| 20260831185538 | 65 | 303 | 2.0 | 8.0 | 0.00 | 0.33 | 0.10 | 65 | 1018.5 |
| 20260831185037 | 65 | 300 | 3.0 | 9.0 | 0.00 | 0.33 | 0.10 | 65 | 1018.4 |
| 20260831184556 | 66 | 307 | 2.0 | 9.0 | 0.00 | 0.33 | 0.10 | 65 | 1018.3 |
| 20260831184037 | 66 | 294 | 2.0 | 9.0 | 0.00 | 0.33 | 0.10 | 66 | 1018.2 |
| 20260831183539 | 66 | 294 | 3.0 | 9.0 | 0.00 | 0.33 | 0.10 | 66 | 1018.1 |
| 20260831183059 | 66 | 302 | 4.0 | 9.0 | 0.00 | 0.33 | 0.10 | 65 | 1018.1 |
| 20260831182537 | 66 | 340 | 4.0 | 11.0 | 0.00 | 0.33 | 0.10 | 65 | 1017.9 |
| 20260831182037 | 66 | 320 | 5.0 | 11.0 | 0.00 | 0.33 | 0.10 | 65 | 1017.9 |
| 20260831181605 | 67 | 317 | 4.0 | 10.0 | 0.00 | 0.33 | 0.10 | 65 | 1017.9 |
| 20260831181037 | 67 | 294 | 5.0 | 10.0 | 0.00 | 0.33 | 0.10 | 65 | 1017.9 |
| 20260831180536 | 67 | 313 | 4.0 | 11.0 | 0.00 | 0.33 | 0.10 | 65 | 1017.8 |
| 20260831180101 | 67 | 306 | 5.0 | 11.0 | 0.00 | 0.33 | 0.10 | 65 | 1017.8 |
| 20260831175536 | 68 | 296 | 3.0 | 10.0 | 0.00 | 0.35 | 0.10 | 65 | 1017.6 |
| 20260831175041 | 68 | 50 | 4.0 | 12.0 | 0.00 | 0.35 | 0.10 | 65 | 1017.5 |
| 20260831174556 | 68 | 23 | 5.0 | 12.0 | 0.00 | 0.35 | 0.10 | 65 | 1017.5 |
| 20260831174037 | 68 | 14 | 5.0 | 12.0 | 0.00 | 0.35 | 0.10 | 65 | 1017.5 |
| 20260831173537 | 68 | 311 | 5.0 | 12.0 | 0.00 | 0.35 | 0.10 | 64 | 1017.4 |
| 20260831173057 | 68 | 292 | 7.0 | 12.0 | 0.00 | 0.35 | 0.10 | 64 | 1017.5 |
| 20260831172537 | 68 | 309 | 2.0 | 14.0 | 0.00 | 0.35 | 0.10 | 65 | 1017.5 |
| 20260831172037 | 68 | 289 | 4.0 | 14.0 | 0.00 | 0.35 | 0.10 | 64 | 1017.4 |
| 20260831171600 | 69 | 306 | 6.0 | 14.0 | 0.00 | 0.35 | 0.10 | 64 | 1017.3 |
| 20260831171037 | 69 | 339 | 6.0 | 14.0 | 0.00 | 0.35 | 0.10 | 64 | 1017.4 |
| 20260831170537 | 69 | 309 | 8.0 | 14.0 | 0.00 | 0.35 | 0.10 | 62 | 1017.4 |
| 20260831170107 | 69 | 288 | 7.0 | 13.0 | 0.00 | 0.35 | 0.10 | 61 | 1017.3 |
| 20260831165536 | 69 | 321 | 4.0 | 11.0 | 0.00 | 0.35 | 0.10 | 62 | 1017.3 |
| 20260831165037 | 70 | 300 | 4.0 | 10.0 | 0.00 | 0.35 | 0.10 | 62 | 1017.3 |
| 20260831164604 | 70 | 284 | 5.0 | 10.0 | 0.00 | 0.35 | 0.10 | 62 | 1017.3 |
| 20260831164037 | 70 | 323 | 4.0 | 10.0 | 0.00 | 0.35 | 0.10 | 62 | 1017.2 |